Montana Department of Transportation

Main Content

Accidents and Incidents Report

Hourly Weather Roundup

ASUS45 KTFX 292219
RWRMT 
MONTANA HOURLY WEATHER ROUNDUP
NATIONAL WEATHER SERVICE GREAT FALLS MT
419 PM MDT SUN MAR 29 2015

NOTE: "FAIR" INDICATES FEW OR NO CLOUDS BELOW 12000 FEET WITH NO
SIGNIFICANT WEATHER AND/OR OBSTRUCTIONS TO VISIBILITY.

* THESE STATIONS ARE NOT UNDER NWS QUALITY CONTROL. THEY DO NOT
   REPORT WEATHER SUCH AS PRECIPITATION OR FOG.

MTZ001.007-043-292300-
WEST OF THE DIVIDE
CITY           SKY/WX    TMP DP  RH WIND       PRES   REMARKS
KALISPELL      CLOUDY    55  30  39 VRB3      30.12F 
MISSOULA       PTSUNNY   54  30  40 W14       30.20F 
BUTTE          PTSUNNY   55  19  24 W17G26    30.15F 
MULLAN PASS    CLOUDY    39  30  70 VRB7G17   30.20S WCI  34 
* ESSEX        N/A       49  31  50 NE3        N/A   
* EUREKA APT   CLOUDY    54  32  43 S6        30.13F 
* HAMILTON APT PTCLDY    57  27  32 SW7       30.20F 
* LIBBY APT    PTSUNNY   57  34  42 S7        30.14F 
* LINCOLN      N/A       51  24  35 SW7G17     N/A   
* LOOKOUT PASS N/A       50  34  54 SE7G19     N/A   
* POLSON       N/A       59  33  38 SW4G12     N/A   
* SEELEY LAKE  N/A       53  27  37 NW10G23    N/A   
* THOMP F APT  SUNNY     48  15  27 S8G16      N/A   
--------------------------------

MTZ008-052.055-292300-
SOUTHWEST MONTANA
CITY           SKY/WX    TMP DP  RH WIND       PRES   REMARKS
BOZEMAN        PTCLDY    57  19  23 NW7       30.12F 
DILLON         SUNNY     63  16  16 SW16G26   30.13F 
* W YELLOWSTON CLOUDY    50  16  26 SW6G16     N/A   
* BOULDER HILL N/A       54  20  26 S13G27     N/A   
* HOMESTAKE PS N/A       53  18  25 SW9G19     N/A   
* MONIDA PASS  N/A       48  14  25 SE20G26    N/A   
* RAYNOLDS PAS N/A       48  30  50 SE12G19    N/A   
* WHITEHALL    N/A       64  17  16 SW17G25    N/A   
* WISE RIVER   N/A       53  17  24 W19G28     N/A   
--------------------------------

MTZ009.010-012-014-046-048-049-054-292300-
EAST SLOPES AND CENTRAL MONTANA
CITY           SKY/WX    TMP DP  RH WIND       PRES   REMARKS
CUT BANK       PTSUNNY   54  28  37 W31G37    29.98S 
GREAT FALLS    PTCLDY    59  21  23 SW24G31   30.03F 
HELENA         CLOUDY    57  21  25 E8        30.11F 
MALMSTROM AFB  PTCLDY    59  23  25 SW28G37   30.04F 
* CONRAD       PTCLDY    57  30  36 SW14G21    N/A   
* DEARBORN     N/A       59  24  26 NE29G37    N/A   
* EAST GLACIER N/A       46  29  52 W22G29     N/A   
* MONARCH      N/A       53  16  23 W22G34     N/A   
* PENDROY      N/A       54  28  37 W19G24     N/A   
* ROGERS PASS  N/A       50  23  35 E10G22     N/A   
* SAINT MARY   N/A       48  30  50 S13G30     N/A   
* WHITE SULPH  N/A       53  14  21 W4G19      N/A   
--------------------------------

MTZ011-013-016-021-035-040-045-047-050-051-292300-
NORTH CENTRAL MONTANA
CITY           SKY/WX    TMP DP  RH WIND       PRES   REMARKS
HAVRE          PTSUNNY   63  28  27 W29G37    29.95F 
LEWISTOWN      PTSUNNY   59  25  27 NW10G17   30.04F 
* N BAR RANCH  SUNNY     55  25  31 NW13G20   30.05F 
* CHINOOK      CLOUDY    64  28  26 W20G28    29.94F 
* FORT BENTON  PTCLDY    63  25  24 SW17G26   30.01F 
* CHESTER      N/A       60  27  28 W18G31     N/A   
* DENTON       N/A       60  24  25 W17G23     N/A   
* GEYSER       N/A       59  18  20 W29G39     N/A   
* JUDITH GAP   N/A       59  19  21 W1G14      N/A   
* LOMA         N/A       61  24  24 SW17G26    N/A   
--------------------------------

MTZ017.020-022.027-061-062-292300-
NORTHEAST MONTANA
CITY           SKY/WX    TMP DP  RH WIND       PRES   REMARKS
GLASGOW        PTSUNNY   61  30  31 W18       29.96F 
GLENDIVE       PTCLDY    61  30  31 W20G29    30.00F 
JORDAN         CLOUDY    61  30  31 W23G28    30.01F 
SIDNEY         SUNNY     63  28  27 W14G24    29.98F 
WOLF POINT     PTSUNNY   63  32  31 W24G30    29.96F 
* BEAVER HILL  N/A       58  27  31 W20G27     N/A   
* CIRCLE       N/A       60  34  38 SW11G23    N/A   
* LINDSAY DVD  N/A       58  27  31 W18G30     N/A   
* NAVAJO       N/A       56  33  42 W17N/A   
* PLENTYWOOD A PTCLDY    57  30  36 W14       29.93F 
* POPLAR APT   PTCLDY    61  34  36 SW15G22   29.97F 
* SACO         N/A       60  31  33 W18G25     N/A   
--------------------------------

MTZ028.042-056.058-292300-
SOUTHCENTRAL AND SOUTHEAST MONTANA
CITY           SKY/WX    TMP DP  RH WIND       PRES   REMARKS
BAKER          PTSUNNY   61  30  31 NW13G23   30.04F 
BILLINGS       PTSUNNY   63  12  13 W17       30.05F 
LIVINGSTON     PTCLDY    63  16  16 W20       30.07F 
MILES CITY     PTSUNNY   63  28  27 W18G25    30.03F 
* BIG TIMBER A PTCLDY    59  16  18 W15G26    30.08F 
* FORSYTH APT  CLOUDY    61  25  25 W13       30.03F 
* ALZADA       N/A       62  26  25 SW11G18    N/A   
* HYSHAM       N/A       58  19  22 W12G23     N/A   
* LAME DEER    N/A       54  22  29 W11G20     N/A   
* REED POINT   N/A       61  23  23 W17G24     N/A   
* ROSCOE HILL  N/A       60  15  17 E9         N/A   
--------------------------------

REGIONAL REPORTS...DAKOTAS
CITY           SKY/WX    TMP DP  RH WIND       PRES   REMARKS
WILLISTON      PTSUNNY   57  28  33 W10G21    29.97F 
DICKINSON      SUNNY     61  27  27 NW21G26   29.99F 
BEACH          SUNNY     59  27  29 W20G28    30.01F 
CROSBY         SUNNY     57  28  33 NW18G25   29.95F 
TIOGA          SUNNY     57  32  39 W21G30    29.98F 
WATFORD CITY   SUNNY     57  30  36 NW15G28   29.97F 
BISMARCK       SUNNY     61  28  29 NW16G28   29.99F 
GRAND FORKS    PTSUNNY   54  25  33 NW22G31   29.88R 
FARGO          PTCLDY    55  23  29 NW29G38   29.90R 
BUFFALO SD     PTCLDY    63  27  26 NW24G29   29.99F 
RAPID CITY     PTSUNNY   63  27  26 NW12G21   30.08S 
--------------------------------

REGIONAL REPORTS...WYOMING/IDAHO/WASHINGTON
CITY           SKY/WX    TMP DP  RH WIND       PRES   REMARKS
GILLETTE       PTCLDY    61  25  25 N5        30.08F 
SHERIDAN       PTSUNNY   61  25  25 N12       30.11F 
CODY           PTSUNNY   63  12  13 W9        30.10F 
YELLOWSTONE LA PTSUNNY   45  12  26 VRB6G17   30.27F 
SALMON         SUNNY     59  23  25 NW3       30.15F 
MULLAN PASS    CLOUDY    39  30  70 VRB7G17   30.20S WCI  34 
SAND POINT     CLOUDY    55  37  51 SW5       30.16F 
SPOKANE        PTSUNNY   59  37  44 SW16      30.17F 
--------------------------------

REGIONAL REPORTS...ALBERTA
CITY           SKY/WX    TMP DP  RH WIND       PRES   REMARKS
CALGARY        CLOUDY    59  23  25 W20G39    29.80F 
LETHBRIDGE     PTSUNNY   57  30  36 W35G55    29.88F 
MEDICINE HAT   PTCLDY    64  30  28 SW26G35   29.84F 
EDMONTON       PTSUNNY   55  32  42 NW5       29.76S 
WATERTON GATE  N/A       55  28  35 SW16G31    N/A   
CARDSTON       N/A       54  30  40 W21G28     N/A   
MILK RIVER     N/A       57  30  36 W29G38     N/A   
--------------------------------

REGIONAL REPORTS...SASKATCHEWAN
CITY           SKY/WX    TMP DP  RH WIND       PRES   REMARKS
SWIFT CURRENT  PTCLDY    61  28  29 W20       29.85F 
REGINA         PTCLDY    54  30  40 W7        29.91F 
VAL MARIE      N/A       61  32  34 W23G29     N/A   
ASSINIBOIA     N/A       59  34  39 W16G24     N/A   
CORONACH       N/A       59  30  33 W18G24     N/A   

--------------------------------